Wetterdaten: Woche 02.12.13 - 08.12.13 (KW49)
Datum Zeit Temp. Aussen +5cm Feuchte Auss Luftdruck Regen Sonnenschein Regendauer UV Solar Windben
02.12.2013 00:00 6,7 C 5,6 C 96 % 1032,0 hPa 0,0 l/m 0,00 h 0,00 h 0,0 UV-I 0 W/m 0,4 km/h (0 Bft)
02.12.2013 01:00 6,6 C 5,6 C 96 % 1032,1 hPa 0,0 l/m 0,00 h 0,00 h 0,0 UV-I 0 W/m 2,6 km/h (1 Bft)
02.12.2013 02:00 6,5 C 5,5 C 96 % 1032,2 hPa 0,0 l/m 0,00 h 0,00 h 0,0 UV-I 0 W/m 0,6 km/h (0 Bft)
02.12.2013 03:00 6,5 C 5,3 C 95 % 1032,5 hPa 0,0 l/m 0,00 h 0,00 h 0,0 UV-I 0 W/m 1,6 km/h (1 Bft)
02.12.2013 04:00 6,4 C 5,0 C 95 % 1032,6 hPa 0,0 l/m 0,00 h 0,00 h 0,0 UV-I 0 W/m 1,4 km/h (1 Bft)
02.12.2013 05:00 6,3 C 5,0 C 95 % 1032,7 hPa 0,0 l/m 0,00 h 0,00 h 0,0 UV-I 0 W/m 0,9 km/h (0 Bft)
02.12.2013 06:00 5,9 C 3,9 C 95 % 1032,9 hPa 0,0 l/m 0,00 h 0,00 h 0,0 UV-I 0 W/m 0,0 km/h (0 Bft)
02.12.2013 07:00 5,0 C 3,2 C 94 % 1033,2 hPa 0,0 l/m 0,00 h 0,00 h 0,0 UV-I 0 W/m 0,0 km/h (0 Bft)
02.12.2013 08:00 4,6 C 2,9 C 94 % 1033,8 hPa 0,0 l/m 0,00 h 0,00 h 0,0 UV-I 14 W/m 0,0 km/h (0 Bft)
02.12.2013 09:00 4,3 C 2,9 C 95 % 1034,1 hPa 0,0 l/m 0,03 h 0,00 h 0,0 UV-I 51 W/m 0,0 km/h (0 Bft)
02.12.2013 10:00 5,0 C 3,7 C 96 % 1034,4 hPa 0,0 l/m 0,13 h 0,00 h 0,0 UV-I 84 W/m 0,3 km/h (0 Bft)
02.12.2013 11:00 6,7 C 5,4 C 92 % 1034,2 hPa 0,0 l/m 0,57 h 0,00 h 0,0 UV-I 188 W/m 2,8 km/h (1 Bft)
02.12.2013 12:00 8,0 C 7,0 C 83 % 1033,6 hPa 0,0 l/m 0,73 h 0,00 h 0,0 UV-I 214 W/m 4,2 km/h (1 Bft)
02.12.2013 13:00 8,2 C 6,7 C 79 % 1033,1 hPa 0,0 l/m 0,97 h 0,00 h 0,0 UV-I 206 W/m 7,8 km/h (2 Bft)
02.12.2013 14:00 7,9 C 6,3 C 77 % 1032,5 hPa 0,0 l/m 0,93 h 0,00 h 0,0 UV-I 139 W/m 6,7 km/h (2 Bft)
02.12.2013 15:00 7,0 C 5,3 C 81 % 1032,3 hPa 0,0 l/m 0,00 h 0,00 h 0,0 UV-I 48 W/m 2,0 km/h (1 Bft)
02.12.2013 16:00 5,4 C 3,5 C 86 % 1032,2 hPa 0,0 l/m 0,00 h 0,00 h 0,0 UV-I 10 W/m 0,1 km/h (0 Bft)
02.12.2013 17:00 4,1 C 2,0 C 90 % 1031,9 hPa 0,0 l/m 0,00 h 0,00 h 0,0 UV-I 0 W/m 0,0 km/h (0 Bft)
02.12.2013 18:00 3,8 C 1,8 C 91 % 1031,6 hPa 0,0 l/m 0,00 h 0,00 h 0,0 UV-I 0 W/m 0,0 km/h (0 Bft)
02.12.2013 19:00 3,0 C 1,1 C 92 % 1031,5 hPa 0,0 l/m 0,00 h 0,00 h 0,0 UV-I 0 W/m 0,0 km/h (0 Bft)
02.12.2013 20:00 2,7 C 1,0 C 93 % 1031,3 hPa 0,0 l/m 0,00 h 0,00 h 0,0 UV-I 0 W/m 0,2 km/h (0 Bft)
02.12.2013 21:00 2,2 C 0,8 C 95 % 1031,3 hPa 0,0 l/m 0,00 h 0,00 h 0,0 UV-I 0 W/m 0,0 km/h (0 Bft)
02.12.2013 22:00 2,0 C 0,5 C 95 % 1031,3 hPa 0,0 l/m 0,00 h 0,00 h 0,0 UV-I 0 W/m 0,0 km/h (0 Bft)
02.12.2013 23:00 1,6 C 0,0 C 95 % 1031,0 hPa 0,0 l/m 0,00 h 0,00 h 0,0 UV-I 0 W/m 0,0 km/h (0 Bft)
03.12.2013 00:00 1,0 C -0,4 C 96 % 1030,7 hPa 0,0 l/m 0,00 h 0,00 h 0,0 UV-I 0 W/m 0,0 km/h (0 Bft)
03.12.2013 01:00 0,5 C -1,1 C 96 % 1030,4 hPa 0,0 l/m 0,00 h 0,00 h 0,0 UV-I 0 W/m 0,1 km/h (0 Bft)
03.12.2013 02:00 0,6 C -0,4 C 96 % 1030,1 hPa 0,0 l/m 0,00 h 0,00 h 0,0 UV-I 0 W/m 2,7 km/h (1 Bft)
03.12.2013 03:00 1,1 C 0,3 C 96 % 1029,6 hPa 0,0 l/m 0,00 h 0,00 h 0,0 UV-I 0 W/m 8,6 km/h (2 Bft)
03.12.2013 04:00 1,4 C 0,6 C 95 % 1029,2 hPa 0,0 l/m 0,00 h 0,00 h 0,0 UV-I 0 W/m 6,5 km/h (2 Bft)
03.12.2013 05:00 1,3 C -0,2 C 93 % 1029,4 hPa 0,0 l/m 0,00 h 0,00 h 0,0 UV-I 0 W/m 0,5 km/h (0 Bft)
03.12.2013 06:00 0,6 C -1,3 C 93 % 1029,4 hPa 0,0 l/m 0,00 h 0,00 h 0,0 UV-I 0 W/m 0,0 km/h (0 Bft)
03.12.2013 07:00 -0,3 C -2,2 C 93 % 1029,4 hPa 0,0 l/m 0,00 h 0,00 h 0,0 UV-I 0 W/m 0,0 km/h (0 Bft)
03.12.2013 08:00 -1,2 C -2,4 C 93 % 1029,4 hPa 0,0 l/m 0,00 h 0,00 h 0,0 UV-I 15 W/m 0,0 km/h (0 Bft)
03.12.2013 09:00 -0,6 C -1,1 C 95 % 1029,3 hPa 0,0 l/m 0,20 h 0,00 h 0,0 UV-I 61 W/m 0,2 km/h (0 Bft)
03.12.2013 10:00 1,1 C 0,5 C 96 % 1029,3 hPa 0,2 l/m 0,30 h 0,00 h 0,0 UV-I 113 W/m 4,8 km/h (1 Bft)
03.12.2013 11:00 3,2 C 1,9 C 90 % 1029,1 hPa 0,0 l/m 0,97 h 0,00 h 0,0 UV-I 203 W/m 7,8 km/h (2 Bft)
03.12.2013 12:00 4,4 C 2,9 C 86 % 1028,5 hPa 0,0 l/m 0,97 h 0,00 h 0,0 UV-I 213 W/m 4,0 km/h (1 Bft)
03.12.2013 13:00 5,4 C 4,1 C 84 % 1028,1 hPa 0,0 l/m 1,00 h 0,00 h 0,0 UV-I 210 W/m 0,9 km/h (0 Bft)
03.12.2013 14:00 5,3 C 4,0 C 84 % 1027,8 hPa 0,0 l/m 0,87 h 0,00 h 0,0 UV-I 127 W/m 1,2 km/h (1 Bft)
03.12.2013 15:00 4,9 C 3,0 C 86 % 1027,7 hPa 0,0 l/m 0,00 h 0,00 h 0,0 UV-I 38 W/m 0,3 km/h (0 Bft)
03.12.2013 16:00 3,1 C 1,0 C 90 % 1027,7 hPa 0,0 l/m 0,00 h 0,00 h 0,0 UV-I 11 W/m 0,0 km/h (0 Bft)
03.12.2013 17:00 1,8 C -0,5 C 94 % 1027,4 hPa 0,0 l/m 0,00 h 0,00 h 0,0 UV-I 0 W/m 0,0 km/h (0 Bft)
03.12.2013 18:00 1,2 C -0,8 C 95 % 1027,2 hPa 0,0 l/m 0,00 h 0,00 h 0,0 UV-I 0 W/m 0,0 km/h (0 Bft)
03.12.2013 19:00 0,2 C -1,6 C 96 % 1027,1 hPa 0,0 l/m 0,00 h 0,00 h 0,0 UV-I 0 W/m 0,0 km/h (0 Bft)
03.12.2013 20:00 -0,6 C -2,2 C 97 % 1027,0 hPa 0,0 l/m 0,00 h 0,00 h 0,0 UV-I 0 W/m 0,0 km/h (0 Bft)
03.12.2013 21:00 -1,1 C -2,4 C 97 % 1026,8 hPa 0,0 l/m 0,00 h 0,00 h 0,0 UV-I 0 W/m 0,0 km/h (0 Bft)
03.12.2013 22:00 -1,5 C -2,8 C 97 % 1026,5 hPa 0,0 l/m 0,00 h 0,00 h 0,0 UV-I 0 W/m 0,0 km/h (0 Bft)
03.12.2013 23:00 -2,1 C -2,9 C 97 % 1026,4 hPa 0,0 l/m 0,00 h 0,00 h 0,0 UV-I 0 W/m 0,0 km/h (0 Bft)
04.12.2013 00:00 -2,6 C -3,3 C 97 % 1026,2 hPa 0,0 l/m 0,00 h 0,00 h 0,0 UV-I 0 W/m 0,0 km/h (0 Bft)
04.12.2013 01:00 -2,2 C -2,6 C 98 % 1025,6 hPa 0,0 l/m 0,00 h 0,00 h 0,0 UV-I 0 W/m 0,0 km/h (0 Bft)
04.12.2013 02:00 -0,4 C -1,1 C 98 % 1025,5 hPa 0,0 l/m 0,00 h 0,00 h 0,0 UV-I 0 W/m 0,4 km/h (0 Bft)
04.12.2013 03:00 0,9 C 0,2 C 98 % 1025,2 hPa 0,0 l/m 0,00 h 0,00 h 0,0 UV-I 0 W/m 0,7 km/h (0 Bft)
04.12.2013 04:00 1,2 C 0,6 C 98 % 1025,0 hPa 0,0 l/m 0,00 h 0,00 h 0,0 UV-I 0 W/m 0,9 km/h (0 Bft)
04.12.2013 05:00 1,4 C 1,0 C 98 % 1024,7 hPa 0,0 l/m 0,00 h 0,00 h 0,0 UV-I 0 W/m 1,4 km/h (1 Bft)
04.12.2013 06:00 1,7 C 1,1 C 98 % 1024,6 hPa 0,0 l/m 0,00 h 0,00 h 0,0 UV-I 0 W/m 2,1 km/h (1 Bft)
04.12.2013 07:00 2,1 C 1,5 C 98 % 1024,6 hPa 0,0 l/m 0,00 h 0,00 h 0,0 UV-I 0 W/m 2,7 km/h (1 Bft)
04.12.2013 08:00 2,5 C 1,8 C 98 % 1024,8 hPa 0,0 l/m 0,00 h 0,00 h 0,0 UV-I 5 W/m 5,6 km/h (1 Bft)
04.12.2013 09:00 2,9 C 2,2 C 98 % 1025,2 hPa 0,0 l/m 0,00 h 0,00 h 0,0 UV-I 11 W/m 2,5 km/h (1 Bft)
04.12.2013 10:00 3,4 C 2,9 C 98 % 1025,4 hPa 0,0 l/m 0,00 h 0,00 h 0,0 UV-I 32 W/m 3,3 km/h (1 Bft)
04.12.2013 11:00 4,2 C 3,7 C 96 % 1025,3 hPa 0,0 l/m 0,00 h 0,00 h 0,0 UV-I 65 W/m 9,0 km/h (2 Bft)
04.12.2013 12:00 5,3 C 4,4 C 90 % 1025,1 hPa 0,0 l/m 0,00 h 0,00 h 0,0 UV-I 73 W/m 10,3 km/h (2 Bft)
04.12.2013 13:00 5,7 C 4,8 C 88 % 1024,8 hPa 0,0 l/m 0,00 h 0,00 h 0,0 UV-I 64 W/m 9,6 km/h (2 Bft)
04.12.2013 14:00 5,8 C 4,4 C 88 % 1024,6 hPa 0,0 l/m 0,00 h 0,00 h 0,0 UV-I 35 W/m 8,7 km/h (2 Bft)
04.12.2013 15:00 5,8 C 4,4 C 89 % 1024,5 hPa 0,0 l/m 0,00 h 0,40 h 0,0 UV-I 14 W/m 11,8 km/h (2 Bft)
04.12.2013 16:00 5,8 C 4,2 C 92 % 1024,9 hPa 0,0 l/m 0,00 h 0,77 h 0,0 UV-I 0 W/m 11,1 km/h (2 Bft)
04.12.2013 17:00 5,8 C 4,4 C 95 % 1025,5 hPa 0,0 l/m 0,00 h 0,30 h 0,0 UV-I 0 W/m 11,4 km/h (2 Bft)
04.12.2013 18:00 6,0 C 4,8 C 96 % 1026,4 hPa 0,4 l/m 0,00 h 0,80 h 0,0 UV-I 0 W/m 5,1 km/h (1 Bft)
04.12.2013 19:00 6,2 C 4,7 C 97 % 1027,1 hPa 0,0 l/m 0,00 h 0,17 h 0,0 UV-I 0 W/m 0,4 km/h (0 Bft)
04.12.2013 20:00 5,7 C 3,0 C 97 % 1027,7 hPa 0,0 l/m 0,00 h 0,00 h 0,0 UV-I 0 W/m 0,4 km/h (0 Bft)
04.12.2013 21:00 4,5 C 1,9 C 97 % 1028,3 hPa 0,0 l/m 0,00 h 0,07 h 0,0 UV-I 0 W/m 0,0 km/h (0 Bft)
04.12.2013 22:00 3,6 C 1,6 C 97 % 1028,5 hPa 0,0 l/m 0,00 h 0,00 h 0,0 UV-I 0 W/m 0,0 km/h (0 Bft)
04.12.2013 23:00 3,1 C 0,9 C 97 % 1028,6 hPa 0,0 l/m 0,00 h 0,03 h 0,0 UV-I 0 W/m 0,0 km/h (0 Bft)
05.12.2013 00:00 2,5 C 0,6 C 97 % 1028,9 hPa 0,2 l/m 0,00 h 0,00 h 0,0 UV-I 0 W/m 0,4 km/h (0 Bft)
05.12.2013 01:00 2,0 C 0,5 C 97 % 1028,8 hPa 0,0 l/m 0,00 h 0,03 h 0,0 UV-I 0 W/m 0,3 km/h (0 Bft)
05.12.2013 02:00 1,7 C 0,4 C 97 % 1028,6 hPa 0,0 l/m 0,00 h 0,00 h 0,0 UV-I 0 W/m 1,4 km/h (1 Bft)
05.12.2013 03:00 1,4 C 0,2 C 97 % 1028,1 hPa 0,0 l/m 0,00 h 0,00 h 0,0 UV-I 0 W/m 0,6 km/h (0 Bft)
05.12.2013 04:00 1,4 C 0,0 C 97 % 1027,6 hPa 0,0 l/m 0,00 h 0,00 h 0,0 UV-I 0 W/m 1,3 km/h (1 Bft)
05.12.2013 05:00 1,4 C 0,3 C 98 % 1027,1 hPa 0,0 l/m 0,00 h 0,00 h 0,0 UV-I 0 W/m 3,3 km/h (1 Bft)
05.12.2013 06:00 1,6 C 0,6 C 98 % 1026,3 hPa 0,0 l/m 0,00 h 0,00 h 0,0 UV-I 0 W/m 5,8 km/h (2 Bft)
05.12.2013 07:00 1,8 C 0,7 C 98 % 1025,3 hPa 0,0 l/m 0,00 h 0,00 h 0,0 UV-I 0 W/m 8,4 km/h (2 Bft)
05.12.2013 08:00 2,1 C 1,1 C 98 % 1024,2 hPa 0,0 l/m 0,23 h 0,00 h 0,0 UV-I 21 W/m 8,9 km/h (2 Bft)
05.12.2013 09:00 2,4 C 1,6 C 98 % 1023,2 hPa 0,0 l/m 0,20 h 0,03 h 0,0 UV-I 50 W/m 13,5 km/h (3 Bft)
05.12.2013 10:00 3,0 C 2,2 C 96 % 1022,5 hPa 0,0 l/m 0,00 h 0,33 h 0,0 UV-I 73 W/m 19,0 km/h (3 Bft)
05.12.2013 11:00 3,4 C 2,5 C 93 % 1020,5 hPa 0,0 l/m 0,00 h 0,03 h 0,0 UV-I 78 W/m 20,9 km/h (4 Bft)
05.12.2013 12:00 4,2 C 3,1 C 90 % 1018,1 hPa 0,0 l/m 0,00 h 0,03 h 0,0 UV-I 54 W/m 25,7 km/h (4 Bft)
05.12.2013 13:00 4,7 C 3,3 C 86 % 1015,3 hPa 0,0 l/m 0,00 h 0,00 h 0,0 UV-I 38 W/m 32,3 km/h (5 Bft)
05.12.2013 14:00 5,1 C 3,9 C 84 % 1012,7 hPa 0,0 l/m 0,00 h 0,03 h 0,0 UV-I 28 W/m 35,4 km/h (5 Bft)
05.12.2013 15:00 5,2 C 3,1 C 87 % 1011,6 hPa 0,6 l/m 0,00 h 1,00 h 0,0 UV-I 9 W/m 35,1 km/h (5 Bft)
05.12.2013 16:00 5,5 C 3,4 C 89 % 1010,3 hPa 0,2 l/m 0,00 h 1,00 h 0,0 UV-I 0 W/m 31,8 km/h (5 Bft)
05.12.2013 17:00 6,2 C 4,2 C 89 % 1009,0 hPa 0,4 l/m 0,00 h 1,00 h 0,0 UV-I 0 W/m 33,8 km/h (5 Bft)
05.12.2013 18:00 6,4 C 4,4 C 93 % 1008,9 hPa 1,0 l/m 0,00 h 1,00 h 0,0 UV-I 0 W/m 32,0 km/h (5 Bft)
05.12.2013 19:00 6,5 C 4,4 C 93 % 1010,0 hPa 1,0 l/m 0,00 h 0,77 h 0,0 UV-I 0 W/m 31,9 km/h (5 Bft)
05.12.2013 20:00 5,3 C 2,9 C 85 % 1012,6 hPa 0,0 l/m 0,00 h 0,10 h 0,0 UV-I 0 W/m 29,4 km/h (5 Bft)
05.12.2013 21:00 4,3 C 2,2 C 82 % 1013,6 hPa 0,0 l/m 0,00 h 0,10 h 0,0 UV-I 0 W/m 24,0 km/h (4 Bft)
05.12.2013 22:00 3,5 C 1,7 C 85 % 1014,4 hPa 0,0 l/m 0,00 h 0,10 h 0,0 UV-I 0 W/m 20,1 km/h (4 Bft)
05.12.2013 23:00 3,0 C 1,5 C 87 % 1015,0 hPa 0,0 l/m 0,00 h 0,07 h 0,0 UV-I 0 W/m 15,8 km/h (3 Bft)
06.12.2013 00:00 2,7 C 1,2 C 90 % 1015,5 hPa 0,4 l/m 0,00 h 0,53 h 0,0 UV-I 0 W/m 19,3 km/h (3 Bft)
06.12.2013 01:00 1,8 C 0,3 C 93 % 1016,1 hPa 0,4 l/m 0,00 h 0,63 h 0,0 UV-I 0 W/m 17,8 km/h (3 Bft)
06.12.2013 02:00 1,6 C 0,4 C 95 % 1016,0 hPa 0,2 l/m 0,00 h 0,17 h 0,0 UV-I 0 W/m 6,3 km/h (2 Bft)
06.12.2013 03:00 1,4 C 0,0 C 95 % 1015,9 hPa 0,0 l/m 0,00 h 0,33 h 0,0 UV-I 0 W/m 8,8 km/h (2 Bft)
06.12.2013 04:00 1,6 C 0,1 C 94 % 1016,4 hPa 0,0 l/m 0,00 h 0,00 h 0,0 UV-I 0 W/m 12,4 km/h (3 Bft)
06.12.2013 05:00 2,3 C 0,6 C 87 % 1017,0 hPa 0,0 l/m 0,00 h 0,00 h 0,0 UV-I 0 W/m 12,3 km/h (3 Bft)
06.12.2013 06:00 1,9 C -0,1 C 89 % 1017,7 hPa 0,0 l/m 0,00 h 0,87 h 0,0 UV-I 0 W/m 7,5 km/h (2 Bft)
06.12.2013 07:00 1,0 C -0,6 C 93 % 1018,3 hPa 0,0 l/m 0,00 h 0,87 h 0,0 UV-I 0 W/m 3,2 km/h (1 Bft)
06.12.2013 08:00 0,9 C -0,3 C 95 % 1018,7 hPa 0,4 l/m 0,00 h 0,53 h 0,0 UV-I 0 W/m 3,8 km/h (1 Bft)
06.12.2013 09:00 0,8 C -0,8 C 95 % 1019,3 hPa 0,6 l/m 0,00 h 1,00 h 0,0 UV-I 7 W/m 6,6 km/h (2 Bft)
06.12.2013 10:00 0,7 C -0,5 C 96 % 1019,8 hPa 0,8 l/m 0,00 h 0,93 h 0,0 UV-I 27 W/m 11,6 km/h (2 Bft)
06.12.2013 11:00 0,9 C -0,1 C 96 % 1020,2 hPa 0,8 l/m 0,00 h 0,80 h 0,0 UV-I 38 W/m 9,9 km/h (2 Bft)
06.12.2013 12:00 1,6 C 0,6 C 97 % 1020,2 hPa 0,6 l/m 0,00 h 0,90 h 0,0 UV-I 60 W/m 17,6 km/h (3 Bft)
06.12.2013 13:00 1,7 C 0,5 C 97 % 1020,7 hPa 0,8 l/m 0,00 h 0,70 h 0,0 UV-I 43 W/m 14,7 km/h (3 Bft)
06.12.2013 14:00 2,1 C 1,1 C 97 % 1020,9 hPa 0,2 l/m 0,00 h 0,13 h 0,0 UV-I 49 W/m 16,5 km/h (3 Bft)
06.12.2013 15:00 2,3 C 1,1 C 95 % 1021,4 hPa 0,4 l/m 0,00 h 0,17 h 0,0 UV-I 19 W/m 18,0 km/h (3 Bft)
06.12.2013 16:00 2,3 C 1,0 C 93 % 1022,0 hPa 0,0 l/m 0,00 h 0,00 h 0,0 UV-I 6 W/m 14,2 km/h (3 Bft)
06.12.2013 17:00 2,3 C 1,1 C 92 % 1022,5 hPa 0,2 l/m 0,00 h 0,13 h 0,0 UV-I 0 W/m 17,8 km/h (3 Bft)
06.12.2013 18:00 2,5 C 1,1 C 91 % 1022,8 hPa 0,2 l/m 0,00 h 0,23 h 0,0 UV-I 0 W/m 16,4 km/h (3 Bft)
06.12.2013 19:00 2,3 C 1,0 C 92 % 1023,1 hPa 0,0 l/m 0,00 h 0,00 h 0,0 UV-I 0 W/m 16,1 km/h (3 Bft)
06.12.2013 20:00 2,0 C 0,6 C 92 % 1023,4 hPa 0,0 l/m 0,00 h 0,00 h 0,0 UV-I 0 W/m 13,9 km/h (3 Bft)
06.12.2013 21:00 2,0 C 0,7 C 91 % 1023,9 hPa 0,0 l/m 0,00 h 0,00 h 0,0 UV-I 0 W/m 9,3 km/h (2 Bft)
06.12.2013 22:00 1,7 C 0,5 C 92 % 1024,6 hPa 0,0 l/m 0,00 h 0,00 h 0,0 UV-I 0 W/m 8,7 km/h (2 Bft)
06.12.2013 23:00 2,0 C 0,8 C 91 % 1024,8 hPa 0,0 l/m 0,00 h 0,00 h 0,0 UV-I 0 W/m 8,9 km/h (2 Bft)
07.12.2013 00:00 2,1 C 1,1 C 91 % 1025,3 hPa 0,0 l/m 0,00 h 0,00 h 0,0 UV-I 0 W/m 9,0 km/h (2 Bft)
07.12.2013 01:00 2,0 C 0,9 C 90 % 1025,2 hPa 0,0 l/m 0,00 h 0,00 h 0,0 UV-I 0 W/m 5,3 km/h (1 Bft)
07.12.2013 02:00 1,9 C 0,6 C 90 % 1025,3 hPa 0,0 l/m 0,00 h 0,00 h 0,0 UV-I 0 W/m 4,0 km/h (1 Bft)
07.12.2013 03:00 2,0 C 0,9 C 91 % 1025,7 hPa 0,0 l/m 0,00 h 0,00 h 0,0 UV-I 0 W/m 5,0 km/h (1 Bft)
07.12.2013 04:00 2,5 C 1,5 C 90 % 1025,6 hPa 0,2 l/m 0,00 h 0,00 h 0,0 UV-I 0 W/m 10,7 km/h (2 Bft)
07.12.2013 05:00 2,7 C 1,7 C 88 % 1025,7 hPa 0,0 l/m 0,00 h 0,00 h 0,0 UV-I 0 W/m 2,6 km/h (1 Bft)
07.12.2013 06:00 2,6 C 1,3 C 87 % 1025,7 hPa 0,0 l/m 0,00 h 0,00 h 0,0 UV-I 0 W/m 1,5 km/h (1 Bft)
07.12.2013 07:00 2,4 C 1,1 C 89 % 1025,5 hPa 0,0 l/m 0,00 h 0,00 h 0,0 UV-I 0 W/m 2,1 km/h (1 Bft)
07.12.2013 08:00 2,4 C 1,4 C 91 % 1025,8 hPa 0,0 l/m 0,00 h 0,10 h 0,0 UV-I 6 W/m 1,5 km/h (1 Bft)
07.12.2013 09:00 2,8 C 1,7 C 93 % 1025,8 hPa 0,0 l/m 0,00 h 0,60 h 0,0 UV-I 13 W/m 1,3 km/h (1 Bft)
07.12.2013 10:00 3,2 C 2,2 C 95 % 1025,5 hPa 0,2 l/m 0,00 h 0,03 h 0,0 UV-I 21 W/m 3,4 km/h (1 Bft)
07.12.2013 11:00 3,5 C 2,5 C 96 % 1025,0 hPa 0,2 l/m 0,00 h 0,50 h 0,0 UV-I 22 W/m 2,8 km/h (1 Bft)
07.12.2013 12:00 4,1 C 3,3 C 97 % 1024,4 hPa 0,4 l/m 0,00 h 0,27 h 0,0 UV-I 31 W/m 3,3 km/h (1 Bft)
07.12.2013 13:00 5,3 C 4,3 C 98 % 1023,7 hPa 0,0 l/m 0,00 h 0,10 h 0,0 UV-I 43 W/m 9,7 km/h (2 Bft)
07.12.2013 14:00 6,0 C 4,9 C 98 % 1023,4 hPa 0,2 l/m 0,00 h 0,50 h 0,0 UV-I 28 W/m 10,8 km/h (2 Bft)
07.12.2013 15:00 6,3 C 5,0 C 98 % 1023,3 hPa 0,0 l/m 0,00 h 0,00 h 0,0 UV-I 13 W/m 8,1 km/h (2 Bft)
07.12.2013 16:00 6,4 C 4,9 C 98 % 1023,4 hPa 0,0 l/m 0,00 h 0,03 h 0,0 UV-I 8 W/m 5,9 km/h (2 Bft)
07.12.2013 17:00 6,3 C 4,5 C 98 % 1023,4 hPa 0,0 l/m 0,00 h 0,00 h 0,0 UV-I 0 W/m 5,6 km/h (1 Bft)
07.12.2013 18:00 6,3 C 4,4 C 97 % 1023,5 hPa 1,0 l/m 0,00 h 0,37 h 0,0 UV-I 0 W/m 6,3 km/h (2 Bft)
07.12.2013 19:00 6,1 C 4,4 C 97 % 1023,6 hPa 0,0 l/m 0,00 h 0,00 h 0,0 UV-I 0 W/m 5,6 km/h (1 Bft)
07.12.2013 20:00 6,0 C 4,4 C 96 % 1023,7 hPa 0,0 l/m 0,00 h 0,07 h 0,0 UV-I 0 W/m 6,7 km/h (2 Bft)
07.12.2013 21:00 5,9 C 4,2 C 96 % 1023,7 hPa 0,0 l/m 0,00 h 0,10 h 0,0 UV-I 0 W/m 7,0 km/h (2 Bft)
07.12.2013 22:00 6,0 C 4,3 C 96 % 1024,1 hPa 0,0 l/m 0,00 h 0,00 h 0,0 UV-I 0 W/m 4,0 km/h (1 Bft)
07.12.2013 23:00 5,8 C 4,0 C 95 % 1024,2 hPa 0,0 l/m 0,00 h 0,00 h 0,0 UV-I 0 W/m 5,9 km/h (2 Bft)
08.12.2013 00:00 5,7 C 4,0 C 94 % 1024,3 hPa 0,0 l/m 0,00 h 0,00 h 0,0 UV-I 0 W/m 6,3 km/h (2 Bft)
08.12.2013 01:00 5,8 C 4,4 C 93 % 1024,3 hPa 0,0 l/m 0,00 h 0,00 h 0,0 UV-I 0 W/m 5,6 km/h (1 Bft)
08.12.2013 02:00 5,9 C 4,3 C 92 % 1024,2 hPa 0,0 l/m 0,00 h 0,07 h 0,0 UV-I 0 W/m 2,3 km/h (1 Bft)
08.12.2013 03:00 5,8 C 4,1 C 92 % 1024,3 hPa 0,0 l/m 0,00 h 0,00 h 0,0 UV-I 0 W/m 4,2 km/h (1 Bft)
08.12.2013 04:00 5,8 C 4,2 C 94 % 1024,0 hPa 0,0 l/m 0,00 h 0,00 h 0,0 UV-I 0 W/m 4,5 km/h (1 Bft)
08.12.2013 05:00 5,8 C 4,3 C 95 % 1024,0 hPa 0,0 l/m 0,00 h 0,00 h 0,0 UV-I 0 W/m 4,7 km/h (1 Bft)
08.12.2013 06:00 6,0 C 4,6 C 96 % 1024,1 hPa 0,0 l/m 0,00 h 0,00 h 0,0 UV-I 0 W/m 4,9 km/h (1 Bft)
08.12.2013 07:00 6,0 C 4,4 C 96 % 1024,3 hPa 0,0 l/m 0,00 h 0,10 h 0,0 UV-I 0 W/m 6,6 km/h (2 Bft)
08.12.2013 08:00 6,0 C 4,4 C 96 % 1024,1 hPa 0,0 l/m 0,00 h 0,00 h 0,0 UV-I 12 W/m 9,9 km/h (2 Bft)
08.12.2013 09:00 6,3 C 5,4 C 97 % 1024,2 hPa 0,0 l/m 0,60 h 0,00 h 0,0 UV-I 66 W/m 9,3 km/h (2 Bft)
08.12.2013 10:00 6,9 C 6,0 C 96 % 1024,9 hPa 0,0 l/m 0,13 h 0,00 h 0,0 UV-I 84 W/m 9,8 km/h (2 Bft)
08.12.2013 11:00 7,5 C 6,7 C 94 % 1025,2 hPa 0,0 l/m 0,00 h 0,00 h 0,0 UV-I 64 W/m 11,0 km/h (2 Bft)
08.12.2013 12:00 7,9 C 6,7 C 92 % 1024,8 hPa 0,0 l/m 0,07 h 0,27 h 0,0 UV-I 92 W/m 12,1 km/h (2 Bft)
08.12.2013 13:00 8,3 C 7,1 C 91 % 1024,4 hPa 0,0 l/m 0,17 h 0,03 h 0,0 UV-I 115 W/m 12,1 km/h (2 Bft)
08.12.2013 14:00 8,6 C 7,3 C 90 % 1024,0 hPa 0,0 l/m 0,03 h 0,33 h 0,0 UV-I 84 W/m 11,6 km/h (2 Bft)
08.12.2013 15:00 8,6 C 7,2 C 90 % 1023,7 hPa 0,0 l/m 0,00 h 0,07 h 0,0 UV-I 36 W/m 12,3 km/h (3 Bft)
08.12.2013 16:00 8,4 C 6,8 C 89 % 1023,4 hPa 0,0 l/m 0,00 h 0,00 h 0,0 UV-I 7 W/m 12,4 km/h (3 Bft)
08.12.2013 17:00 8,0 C 6,7 C 90 % 1023,6 hPa 0,0 l/m 0,00 h 0,00 h 0,0 UV-I 0 W/m 12,3 km/h (3 Bft)
08.12.2013 18:00 8,0 C 6,7 C 90 % 1024,2 hPa 0,0 l/m 0,00 h 0,00 h 0,0 UV-I 0 W/m 14,8 km/h (3 Bft)
08.12.2013 19:00 8,1 C 6,7 C 90 % 1024,4 hPa 0,0 l/m 0,00 h 0,00 h 0,0 UV-I 0 W/m 16,5 km/h (3 Bft)
08.12.2013 20:00 7,9 C 6,5 C 91 % 1024,6 hPa 0,0 l/m 0,00 h 0,00 h 0,0 UV-I 0 W/m 16,3 km/h (3 Bft)
08.12.2013 21:00 8,0 C 6,7 C 91 % 1024,7 hPa 0,0 l/m 0,00 h 0,00 h 0,0 UV-I 0 W/m 17,0 km/h (3 Bft)
08.12.2013 22:00 7,9 C 6,7 C 91 % 1025,2 hPa 0,0 l/m 0,00 h 0,00 h 0,0 UV-I 0 W/m 14,7 km/h (3 Bft)
08.12.2013 23:00 7,8 C 6,7 C 91 % 1025,4 hPa 0,0 l/m 0,00 h 0,00 h 0,0 UV-I 0 W/m 15,3 km/h (3 Bft)
Min-Datum _ 04.12.13 03.12.13 02.12.13 05.12.13 - - - - - 02.12.13
_ Min-Zeit 00:52 23:52 14:00 18:14 - - - - - 00:00
Minimum _ -2,7 C -3,3 C 75 % 1008,3 hPa - - - - - 0,0 km/h (0 Bft)
Max-Datum _ 08.12.13 08.12.13 03.12.13 02.12.13 05.12.13 02.12.13 04.12.13 02.12.13 02.12.13 05.12.13
_ Max-Zeit 14:12 14:12 21:04 10:32 18:08 09:36 15:26 00:00 11:40 14:02
Maximum _ 8,6 C 7,8 C 100 % 1034,6 hPa 1,0 l/m 0,03 h 0,03 h 0,0 UV-I 315 W/m 56,6 km/h
W-SW (7 Bft)
Durchschnitt _ 3,8 C 2,4 C 93 % 1025,0 hPa #12,2 l/m #9:06 h #20:40 h 0,0 UV-I 60 W/m 7,5 km/h (2 Bft)
© 2013 W. Hausmann